Regional Weather Roundup
Issued by NWS

Home | Current Version | Previous Version | Graphics & Text | Print | Product List | Glossary On
Versions: 1 2 3 4 5 6 7 8 9 10 11 12 13 14 15 16 17 18 19 20 21 22 23 24 25 26 27 28 29 30 31 32 33 34 35 36 37 38 39 40 41 42 43 44 45 46 47 48 49 50
000
ASUS43 KFSD 261202
RWRSD

WEATHER ROUNDUP FOR SOUTH DAKOTA
NATIONAL WEATHER SERVICE SIOUX FALLS SD
700 AM CDT WED JUL 26 2017

NOTE: "FAIR" INDICATES FEW OR NO CLOUDS BELOW 12,000 FEET WITH NO
SIGNIFICANT WEATHER AND/OR OBSTRUCTIONS TO VISIBILITY.


SDZ001>005-009-010-012>017-261300-
NORTHWEST AND NORTH CENTRAL SOUTH DAKOTA

CITY           SKY/WX    TMP DP  RH WIND       PRES   REMARKS
BUFFALO          N/A     67  54  63 CALM      30.08R
FAITH            N/A     68  55  63 NW8       30.10R
MOBRIDGE       CLEAR     64  61  90 NW6       30.04R
$$

SDZ012>016-024>037-041>051-057-063-072>074-261300-
SOUTHWEST AND SOUTH CENTRAL SOUTH DAKOTA

CITY           SKY/WX    TMP DP  RH WIND       PRES   REMARKS
RAPID CTY ARPT MOCLDY    70  50  49 N6        30.13R
PIERRE         CLOUDY    71  67  87 N13       30.01R
CUSTER         CLOUDY    63  43  48 NE9       30.25S
ELLSWORTH AFB  CLOUDY    66  53  63 NW8       30.13R
PHILIP         CLOUDY    72  65  78 N9        30.04R
PINE RIDGE     CLOUDY    70  57  63 N7        30.11R
SPEARFISH      MOCLDY    64  54  68 S6        30.18S
WINNER         PTSUNNY   71  68  90 E6        30.02R
$$

SDZ004>011-016>023-039-040-261300-
NORTHEAST SOUTH DAKOTA

CITY           SKY/WX    TMP DP  RH WIND       PRES   REMARKS
ABERDEEN       CLOUDY    68  63  84 NE6       30.03R
WATERTOWN      CLOUDY    69  63  81 NE6       30.02R
BROOKINGS      CLOUDY    69  68  96 CALM      30.03R
SISSETON         N/A     67  64  90 CALM      30.02R
$$

SDZ017-020-022-023-036>040-048>070-261300-
SOUTHEAST SOUTH DAKOTA

CITY           SKY/WX    TMP DP  RH WIND       PRES   REMARKS
SIOUX FALLS    CLOUDY    71  70  96 CALM      30.01R
HURON          CLOUDY    71  69  93 E5        29.99R
CHAMBERLAIN    CLOUDY    71  71 100 NE5       29.99F
MITCHELL       CLOUDY    69  68  96 CALM      29.99R
YANKTON        CLOUDY    71  70  96 NE7       29.98R
$$

ABBREVIATIONS USED IN REMARKS
   TC - TEMPERATURE IN CELSIUS
  WCI - WIND CHILL INDEX
   HX - HEAT INDEX
  VSB - VISIBILITY





USA.gov is the U.S. government's official web portal to all federal, state and local government web resources and services.